This is the latest recevied weather packets stored in our database for station/object AC5CM. If no packets are shown the sender has not sent any weather packets the latest 10 day(s).
| Time | Temp. | Humidity | Pressure | Rain* | Wind** | Luminosity | Snow |
|---|---|---|---|---|---|---|---|
| 1778113277 | 27.78° C | 84% | 1009.7 hPa | 0 mm | - | - | - |
| 1778112974 | 27.78° C | 84% | 1009.7 hPa | 0 mm | - | - | - |
| 1778112672 | 27.78° C | 84% | 1009.7 hPa | 0 mm | - | - | - |
| 1778112368 | 27.78° C | 83% | 1009.8 hPa | 0 mm | - | - | - |
| 1778112063 | 27.78° C | 83% | 1009.8 hPa | 0 mm | - | - | - |
| 1778111761 | 27.78° C | 83% | 1009.7 hPa | 0 mm | - | - | - |
| 1778111461 | 28.33° C | 82% | 1009.7 hPa | 0 mm | - | - | - |
| 1778111159 | 28.33° C | 82% | 1009.4 hPa | 0 mm | - | - | - |
| 1778110856 | 28.33° C | 82% | 1009.4 hPa | 0 mm | - | - | - |
| 1778110553 | 28.33° C | 82% | 1009.2 hPa | 0 mm | - | - | - |
| 1778110250 | 28.33° C | 82% | 1009.3 hPa | 0 mm | - | - | - |
| 1778109946 | 28.33° C | 82% | 1009.3 hPa | 0 mm | - | - | - |
| 1778109641 | 28.33° C | 82% | 1009.2 hPa | 0 mm | - | - | - |
| 1778109339 | 28.33° C | 81% | 1009.3 hPa | 0 mm | - | - | - |
| 1778109037 | 28.33° C | 81% | 1009.3 hPa | 0 mm | - | - | - |
| 1778108733 | 28.33° C | 82% | 1009.2 hPa | 0 mm | - | - | - |
| 1778108430 | 28.33° C | 82% | 1009.5 hPa | 0 mm | - | - | - |
| 1778108127 | 28.33° C | 82% | 1009.4 hPa | 0 mm | - | - | - |
| 1778107823 | 28.33° C | 81% | 1009.5 hPa | 0 mm | - | - | - |
| 1778107520 | 28.89° C | 80% | 1009.2 hPa | 0 mm | - | - | - |
| 1778107217 | 29.44° C | 78% | 1009.2 hPa | 0 mm | - | - | - |
| 1778106913 | 30° C | 77% | 1009.2 hPa | 0 mm | - | - | - |
| 1778106610 | 30° C | 77% | 1009.1 hPa | 0 mm | - | - | - |
| 1778106306 | 30° C | 76% | 1008.8 hPa | 0 mm | - | - | - |
| 1778106003 | 29.44° C | 76% | 1008.9 hPa | 0 mm | - | - | - |
* Rain latest hour (hover to see other rain measurements)
** Current wind speed in m/s (hover to see current wind gust speed)